User: anonymous
Location: Maiden_LMO
(35.5760°N, 81.2120°W)
Time: 15:03:22
(UTC-04:00)
Language:

ADEOS II - Orbit

View from above orbital plane
View from above orbital plane
View from above satellite
View from above satellite

Ground track
Ground track

The orbit data is extracted from the following two-line orbital elements,

1 27597U 02056A   14106.45995032  .00000283  00000-0  13377-3 0  2778
2 27597 098.2759 117.7082 0002223 120.0956 041.2885 14.26772143590290
Epoch (UTC): 16 April 2014 11:02:19
Eccentricity: 0.0002223
inclination: 98.2759°
perigee height: 801 km
apogee height: 804 km
right ascension of ascending node: 117.7082°
argument of perigee: 120.0956°
revolutions per day: 14.26772143
mean anomaly at epoch: 41.2885°
orbit number at epoch: 59029

The dashed part of the orbit path shows where the satellite is in the earth's shadow,  

DLR